This demonstration page uses our WeatherBlox Daily Observations layout. Learn more.

41.55636, -103.73856

Hourly Observations for August 12, 2015

Temp ( °F °C ) Dew Point ( °F °C ) Humidity (%) Winds ( mph kmh ) Pressure ( in mb ) Visibility ( mi km ) Precip ( " mm )
12:53 am 00:53 Clear 66 18.9 63 17.2 90 90 E 6 9 30.07 1018 10 16.0934 0 0
1:53 am 01:53 Clear 66 18.9 62 16.7 87 87 E 9 15 30.06 1018 10 16.0934 0 0
2:53 am 02:53 Clear 65 18.3 62 16.7 90 90 ESE 7 11 30.06 1018 10 16.0934 0 0
3:53 am 03:53 Clear 64 17.8 61 16.1 90 90 E 6 9 30.05 1018 10 16.0934 0 0
4:53 am 04:53 Clear 64 17.8 61 16.1 90 90 E 6 9 30.05 1018 10 16.0934 0 0
5:53 am 05:53 Clear 63 17.2 61 16.1 93 93 E 6 9 30.06 1018 9 14.48406 0 0
6:53 am 06:53 Sunny with Mist and Fog 65 18.3 63 17.2 93 93 ESE 7 11 30.07 1018 6 9.65604 0 0
7:53 am 07:53 Sunny 69 20.6 65 18.3 87 87 ESE 8 13 30.08 1019 8 12.87472 0 0
8:53 am 08:53 Sunny 73 22.8 65 18.3 76 76 SE 9 15 30.07 1018 10 16.0934 0 0
9:53 am 09:53 Sunny 77 25 66 18.9 69 69 E 7 11 30.07 1018 10 16.0934 0 0
10:53 am 10:53 Sunny 82 27.8 67 19.4 60 60 E 10 17 30.06 1018 10 16.0934 0 0
11:53 am 11:53 Sunny 87 30.6 65 18.3 48 48 E 8 13 30.03 1017 10 16.0934 0 0
12:53 pm 12:53 Sunny 89 31.7 64 17.8 43 43 ESE 7 11 30.02 1017 10 16.0934 0 0
1:53 pm 13:53 Sunny 92 33.3 62 16.7 37 37 E 7 11 30.01 1016 10 16.0934 0 0
2:53 pm 14:53 Sunny 95 35 56 13.3 27 27 Calm 29.98 1015 10 16.0934 0 0
3:53 pm 15:53 Sunny 94 34.4 55 12.8 27 27 E 7 11 29.98 1015 10 16.0934 0 0
4:53 pm 16:53 Sunny 93 33.9 59 15 32 32 E 10 17 29.96 1015 10 16.0934 0 0
5:53 pm 17:53 Sunny 89 31.7 64 17.8 43 43 ESE 10 17 29.96 1015 10 16.0934 0 0
6:53 pm 18:53 Sunny 87 30.6 60 15.6 40 40 S 13 20 29.97 1015 10 16.0934 0 0
7:53 pm 19:53 Sunny 82 27.8 62 16.7 51 51 S 5 7 29.97 1015 10 16.0934 0 0
8:53 pm 20:53 Clear 81 27.2 60 15.6 49 49 SSE 3 6 29.99 1016 10 16.0934 0 0
9:53 pm 21:53 Clear 74 23.3 64 17.8 71 71 E 8 13 30.01 1016 10 16.0934 0 0
10:53 pm 22:53 Mostly Clear 72 22.2 65 18.3 79 79 E 6 9 30.01 1016 10 16.0934 0 0
11:53 pm 23:53 Clear 72 22.2 64 17.8 76 76 E 8 13 29.99 1016 10 16.0934 0 0

Powered by AerisWeather